Weather History for Hays, KS

Change the Weather History Date:

Thursday, April 11, 2013

  Actual Average Record
Temperature  
Mean Temperature 37 °F -  
Max Temperature 51 °F 61 °F 84 °F (2006)
Min Temperature 23 °F 37 °F 19 °F (1997)
Degree Days  
Heating Degree Days 28    
Moisture  
Dew Point 23 °F    
Average Humidity 63    
Maximum Humidity 80    
Minimum Humidity 33    
Precipitation  
Precipitation 0.05 in - - ()
Sea Level Pressure  
Sea Level Pressure 29.80 in    
Wind  
Wind Speed 13 mph (NW)    
Max Wind Speed 22 mph    
Max Gust Speed 28 mph    
Visibility 10 miles    
Events      
Averages and records for this station are not official NWS values.
T = Trace of Precipitation, MM = Missing Value Source: NWS Daily Summary

Daily Weather History Graph

Daily Weather History Graph

Search for Another Location

Airport:

Trip Planner

Search our weather history database for the weather conditions in past years. The results will help you decide how hot, cold, wet, or windy it might be!

Date:

Astronomy

Apr. 11, 2013 Rise Set
Actual Time 7:06 AM CDT 8:10 PM CDT
Civil Twilight 6:38 AM CDT 8:37 PM CDT
Nautical Twilight 6:06 AM CDT 9:10 PM CDT
Astronomical Twilight 5:32 AM CDT 9:44 PM CDT
Moon 7:39 AM CDT (4/11) 9:45 PM CDT (4/11)
Length of Visible Light 13h 59m
Length of Day
13h 04m
New Moon, 2% of the Moon is Illuminated
Apr 11
New Moon
Apr 18
First Quarter
Apr 25
Full
May 2
Last Quarter
May 9
New

Hourly Weather History & Observations

Time (CDT) Temp. Windchill Dew Point Humidity Pressure Visibility Wind Dir Wind Speed Gust Speed Precip Events Conditions
12:15 AM 28.4 °F 19.1 °F 23.0 °F 80% 29.95 in 10.0 mi NW 10.4 mph - N/A   Mostly Cloudy
12:35 AM 28.4 °F 17.5 °F 21.2 °F 74% 29.95 in 10.0 mi NW 13.8 mph - N/A   Overcast
12:55 AM 28.4 °F 17.5 °F 21.2 °F 74% 29.94 in 10.0 mi NW 13.8 mph - N/A   Overcast
1:15 AM 28.4 °F 18.5 °F 21.2 °F 74% 29.93 in 10.0 mi NW 11.5 mph - N/A   Mostly Cloudy
1:35 AM 26.6 °F 15.2 °F 21.2 °F 80% 29.92 in 10.0 mi WNW 13.8 mph 18.4 mph N/A   Partly Cloudy
1:55 AM 26.6 °F 16.2 °F 21.2 °F 80% 29.91 in 10.0 mi NW 11.5 mph 17.3 mph N/A   Clear
2:15 AM 26.6 °F 16.8 °F 21.2 °F 80% 29.90 in 10.0 mi WNW 10.4 mph - N/A   Clear
2:35 AM 26.6 °F 16.8 °F 21.2 °F 80% 29.89 in 10.0 mi WNW 10.4 mph - N/A   Clear
2:55 AM 26.6 °F 16.2 °F 21.2 °F 80% 29.87 in 10.0 mi WNW 11.5 mph - N/A   Clear
3:15 AM 26.6 °F 14.3 °F 21.2 °F 80% 29.87 in 10.0 mi NW 16.1 mph 20.7 mph N/A   Clear
3:35 AM 26.6 °F 15.7 °F 19.4 °F 74% 29.86 in 10.0 mi WNW 12.7 mph - N/A   Clear
3:55 AM 24.8 °F 15.3 °F 19.4 °F 80% 29.84 in 10.0 mi West 9.2 mph - N/A   Clear
4:15 AM 24.8 °F 14.6 °F 19.4 °F 80% 29.83 in 10.0 mi WNW 10.4 mph - N/A   Clear
4:35 AM 24.8 °F 13.4 °F 19.4 °F 80% 29.82 in 10.0 mi WNW 12.7 mph - N/A   Clear
4:55 AM 24.8 °F 15.3 °F 19.4 °F 80% 29.82 in 10.0 mi WNW 9.2 mph - N/A   Clear
5:15 AM 24.8 °F 14.6 °F 17.6 °F 74% 29.83 in 10.0 mi WNW 10.4 mph - N/A   Clear
5:35 AM 24.8 °F 14.0 °F 17.6 °F 74% 29.83 in 10.0 mi WNW 11.5 mph - N/A   Clear
5:55 AM 23.0 °F 12.4 °F 17.6 °F 80% 29.84 in 10.0 mi West 10.4 mph - N/A   Clear
6:15 AM 23.0 °F 12.4 °F 17.6 °F 80% 29.83 in 10.0 mi WNW 10.4 mph - N/A   Clear
6:35 AM 23.0 °F 13.1 °F 17.6 °F 80% 29.82 in 10.0 mi WNW 9.2 mph - N/A   Clear
6:55 AM 23.0 °F 12.4 °F 17.6 °F 80% 29.82 in 10.0 mi WNW 10.4 mph - N/A   Clear
7:15 AM 23.0 °F 13.1 °F 17.6 °F 80% 29.82 in 10.0 mi WNW 9.2 mph - N/A   Clear
7:35 AM 23.0 °F 13.9 °F 17.6 °F 80% 29.81 in 10.0 mi West 8.1 mph - N/A   Clear
7:55 AM 24.8 °F 14.0 °F 19.4 °F 80% 29.82 in 10.0 mi WNW 11.5 mph - N/A   Clear
8:15 AM 26.6 °F 16.2 °F 19.4 °F 74% 29.82 in 10.0 mi NW 11.5 mph - N/A   Clear
8:35 AM 28.4 °F 17.5 °F 19.4 °F 69% 29.82 in 10.0 mi NW 13.8 mph - N/A   Scattered Clouds
8:55 AM 28.4 °F 17.5 °F 21.2 °F 74% 29.81 in 10.0 mi NW 13.8 mph - N/A   Partly Cloudy
9:15 AM 30.2 °F 19.3 °F 21.2 °F 69% 29.80 in 10.0 mi NW 15.0 mph - N/A   Partly Cloudy
9:35 AM 30.2 °F 19.3 °F 21.2 °F 69% 29.81 in 10.0 mi NW 15.0 mph - N/A   Partly Cloudy
9:55 AM 32.0 °F 20.5 °F 21.2 °F 64% 29.80 in 10.0 mi NW 18.4 mph 24.2 mph 0.01 in   Clear
10:15 AM 33.8 °F 22.5 °F 21.2 °F 60% 29.80 in 10.0 mi NW 19.6 mph 23.0 mph N/A   Clear
10:35 AM 33.8 °F 22.5 °F 23.0 °F 65% 29.80 in 10.0 mi NW 19.6 mph - N/A   Clear
10:55 AM 35.6 °F 25.2 °F 21.2 °F 56% 29.80 in 10.0 mi NNW 18.4 mph 23.0 mph N/A   Clear
11:15 AM 37.4 °F 28.9 °F 24.8 °F 60% 29.80 in 10.0 mi NW 13.8 mph - 0.01 in   Clear
11:35 AM 37.4 °F 28.2 °F 24.8 °F 60% 29.79 in 10.0 mi NW 16.1 mph 21.9 mph 0.03 in   Clear
12:15 PM 39.2 °F 29.3 °F 24.8 °F 56% 29.78 in 10.0 mi NW 20.7 mph - N/A   Clear
12:35 PM 42.8 °F 35.1 °F 24.8 °F 49% 29.77 in 10.0 mi NW 16.1 mph 24.2 mph 0.01 in   Clear
12:55 PM 42.8 °F 34.5 °F 24.8 °F 49% 29.76 in 10.0 mi WNW 18.4 mph 25.3 mph 0.01 in   Clear
1:15 PM 44.6 °F 36.6 °F 26.6 °F 49% 29.75 in 10.0 mi NW 19.6 mph 25.3 mph N/A   Clear
1:35 PM 46.4 °F 39.2 °F 26.6 °F 46% 29.74 in 10.0 mi NW 18.4 mph 25.3 mph N/A   Clear
1:55 PM 46.4 °F 39.8 °F 24.8 °F 43% 29.74 in 10.0 mi NW 16.1 mph 25.3 mph N/A   Clear
2:15 PM 48.2 °F - 24.8 °F 40% 29.73 in 10.0 mi NW 16.1 mph 26.5 mph N/A   Clear
2:35 PM 48.2 °F - 24.8 °F 40% 29.73 in 10.0 mi NW 16.1 mph 27.6 mph N/A   Clear
2:55 PM 50.0 °F - 24.8 °F 37% 29.72 in 10.0 mi NW 15.0 mph 24.2 mph N/A   Clear
3:15 PM 50.0 °F - 24.8 °F 37% 29.72 in 10.0 mi West 15.0 mph 23.0 mph N/A   Clear
3:35 PM 51.8 °F - 24.8 °F 35% 29.71 in 10.0 mi NW 16.1 mph 21.9 mph N/A   Clear
3:55 PM 51.8 °F - 24.8 °F 35% 29.70 in 10.0 mi NW 16.1 mph - N/A   Clear
4:15 PM 51.8 °F - 23.0 °F 33% 29.70 in 10.0 mi NW 17.3 mph 26.5 mph N/A   Clear
4:35 PM 51.8 °F - 24.8 °F 35% 29.70 in 10.0 mi NW 21.9 mph 27.6 mph N/A   Clear
4:55 PM 51.8 °F - 24.8 °F 35% 29.70 in 10.0 mi NNW 15.0 mph 25.3 mph N/A   Clear
5:15 PM 51.8 °F - 24.8 °F 35% 29.70 in 10.0 mi NW 12.7 mph 23.0 mph N/A   Clear
5:35 PM 51.8 °F - 24.8 °F 35% 29.71 in 10.0 mi NNW 16.1 mph 24.2 mph N/A   Clear
5:55 PM 51.8 °F - 24.8 °F 35% 29.72 in 10.0 mi North 17.3 mph - N/A   Clear
6:15 PM 48.2 °F - 28.4 °F 46% 29.73 in 10.0 mi North 16.1 mph - N/A   Clear
6:35 PM 46.4 °F 40.1 °F 26.6 °F 46% 29.74 in 10.0 mi NNE 15.0 mph - N/A   Clear
6:55 PM 44.6 °F 36.6 °F 26.6 °F 49% 29.75 in 10.0 mi North 19.6 mph - N/A   Clear
7:15 PM 44.6 °F 37.4 °F 26.6 °F 49% 29.76 in 10.0 mi NNE 16.1 mph - N/A   Clear
7:35 PM 42.8 °F 36.2 °F 26.6 °F 53% 29.77 in 10.0 mi North 12.7 mph - N/A   Clear
7:55 PM 39.2 °F 33.0 °F 24.8 °F 56% 29.77 in 10.0 mi NNE 9.2 mph - N/A   Clear
8:15 PM 37.4 °F 32.8 °F 26.6 °F 65% 29.78 in 10.0 mi NNE 5.8 mph - N/A   Clear
8:35 PM 35.6 °F 30.7 °F 26.6 °F 70% 29.79 in 10.0 mi NE 5.8 mph - N/A   Clear
8:55 PM 35.6 °F 29.9 °F 26.6 °F 70% 29.81 in 10.0 mi North 6.9 mph - N/A   Partly Cloudy
9:15 PM 35.6 °F 30.7 °F 26.6 °F 70% 29.81 in 10.0 mi North 5.8 mph - N/A   Scattered Clouds
9:35 PM 35.6 °F 30.7 °F 26.6 °F 70% 29.82 in 10.0 mi North 5.8 mph - N/A   Mostly Cloudy
9:55 PM 35.6 °F 29.2 °F 26.6 °F 70% 29.82 in 10.0 mi North 8.1 mph - N/A   Mostly Cloudy
10:15 PM 33.8 °F 27.0 °F 24.8 °F 70% 29.82 in 10.0 mi North 8.1 mph - N/A   Partly Cloudy
10:35 PM 33.8 °F 27.7 °F 24.8 °F 70% 29.83 in 10.0 mi NNW 6.9 mph - N/A   Clear
10:55 PM 32.0 °F 26.4 °F 24.8 °F 75% 29.84 in 10.0 mi NW 5.8 mph - N/A   Clear
11:15 PM 33.8 °F 29.6 °F 24.8 °F 70% 29.85 in 10.0 mi NW 4.6 mph - N/A   Clear
11:35 PM 32.0 °F 27.5 °F 23.0 °F 69% 29.85 in 10.0 mi WNW 4.6 mph - N/A   Clear
11:55 PM 30.2 °F 25.4 °F 23.0 °F 75% 29.86 in 10.0 mi NW 4.6 mph - N/A   Clear